Location: Kailua
(21.4020°N, 157.7390°W)
Time: 00:35:50
(UTC-10:00)

Cosmos 2221 Rocket - Visible Passes

Search period start: 18 April 2014 00:00
Search period end: 28 April 2014 00:00
Orbit: 622 x 650 km, 82.5° (Epoch: 17 April)

Date Brightness Start Highest point End Pass type
(mag) Time Alt. Az. Time Alt. Az. Time Alt. Az.
18 Apr 6.8 05:01:50 10° NE 05:04:39 16° E 05:07:27 10° ESE visible
19 Apr 5.3 05:23:13 10° NNE 05:27:27 39° E 05:31:41 10° SSE visible
21 Apr 6.9 04:32:30 10° NE 04:34:36 13° E 04:36:43 10° ESE visible
22 Apr 5.6 04:53:23 10° NNE 04:57:26 31° E 05:01:28 10° SE visible
23 Apr 3.8 05:15:36 10° N 05:20:09 81° E 05:24:42 10° S visible
24 Apr 7.0 04:03:47 10° ENE 04:04:33 10° ENE 04:05:18 10° E visible
24 Apr 4.1 05:38:34 10° NNW 05:42:46 39° W 05:46:59 10° SSW visible
25 Apr 5.9 04:23:37 10° NNE 04:27:24 26° E 04:31:10 10° SE visible
26 Apr 4.1 04:45:38 10° N 04:50:08 65° E 04:54:39 10° SSE visible
27 Apr 3.8 05:08:24 10° NNW 05:12:47 48° W 05:17:09 10° SSW visible
